Flag for Greece Weather past 2 weeks in Iráklion, Crete, Greece

Now
59 °F

Partly sunny.


Feels Like: 56 °F
Forecast: 48 / 64 °F
Wind: 14 mph from West

Location: Heraklion Airport

Current Time: Feb 28, 2015 at 6:20:26 PM

Latest Report: Feb 28, 2015 at 5:50 PM


Visibility: N/A

Pressure: 29.98 "Hg

Humidity: 72%

Dew point: 50 °F

Location of IráklionLocation

Historic Weather in Iráklion — Graph

°F

Iráklion temperature yesterday

Maximum temperature yesterday: 64 °F (at 10:20 AM)
Minimum temperature yesterday: 48 °F (at 12:50 PM)
Average temperature yesterday: 57 °F

Past Weeks' High & Low Weather Summary

 TemperatureHumidityPressure
High66 °F (Feb 26, 10:50 AM)94% (Feb 14, 10:50 PM)30.33 "Hg (Feb 14, 10:50 PM)
Low39 °F (Feb 18, 9:20 AM)39% (Feb 27, 2:50 PM)29.65 "Hg (Feb 24, 12:50 PM)
Average53 °F70%30.00 "Hg
* Reported Feb 13 4:20 PM — Feb 28 4:50 PM, Iráklion, Weather by CustomWeather, © 2015

Note: Actual official high and low records may vary slightly from our data, if they occured in-between our weather recording intervals... More about our weather records

Advertising

Iráklion weather history for previous 24 hours

 ConditionsComfort  
Time TempWeatherWind HumidityBarometerVisibility
4:50 PM
Sat, Feb 28
61 °FScattered clouds.17 mph68%29.95 "HgN/A
4:20 PM61 °FPartly sunny.20 mph72%29.95 "HgN/A
3:50 PM61 °FPartly sunny.20 mph72%29.95 "HgN/A
3:20 PM63 °FScattered clouds.21 mph64%29.92 "HgN/A
2:50 PM63 °FScattered clouds.20 mph64%29.92 "HgN/A
2:20 PM64 °FScattered clouds.20 mph60%29.92 "HgN/A
1:50 PM64 °FScattered clouds.17 mph60%29.92 "HgN/A
1:20 PM63 °FScattered clouds.17 mph64%29.92 "HgN/A
12:50 PM63 °FScattered clouds.16 mph64%29.92 "HgN/A
12:20 PM64 °FScattered clouds.12 mph56%29.92 "HgN/A
11:50 AM64 °FScattered clouds.6 mph56%29.92 "HgN/A
11:20 AM64 °FPassing clouds.7 mph52%29.92 "HgN/A
10:50 AM64 °FPassing clouds.3 mph52%29.92 "HgN/A
10:20 AM61 °FPassing clouds.3 mph55%29.92 "HgN/A
9:50 AM61 °FPassing clouds.6 mph55%29.92 "HgN/A
9:20 AM59 °FPassing clouds.6 mph59%29.89 "HgN/A
8:50 AM59 °FPassing clouds.8 mph59%29.89 "HgN/A
8:20 AM54 °FPassing clouds.7 mph67%29.89 "HgN/A
7:50 AM54 °FPassing clouds.7 mph67%29.89 "HgN/A
7:20 AM50 °FScattered clouds.6 mph76%29.86 "HgN/A
6:50 AM50 °FScattered clouds.7 mph76%29.86 "HgN/A
6:20 AM54 °FPassing clouds.8 mph77%29.83 "HgN/A
5:50 AM54 °FPassing clouds.6 mph77%29.83 "HgN/A
4:50 AM54 °FPassing clouds.9 mph77%29.83 "HgN/A
3:50 AM57 °FPartly cloudy.9 mph67%29.80 "HgN/A
3:20 AM57 °FPartly cloudy.12 mph67%29.80 "HgN/A
2:50 AM57 °FPartly cloudy.12 mph67%29.80 "HgN/A
2:20 AM57 °FPartly cloudy.9 mph67%29.80 "HgN/A
1:50 AM57 °FPartly cloudy.14 mph67%29.80 "HgN/A
1:20 AM55 °FPassing clouds.17 mph77%29.80 "HgN/A
12:50 AM55 °FPassing clouds.21 mph77%29.80 "HgN/A
12:20 AM55 °FPassing clouds.21 mph77%29.80 "HgN/A
11:50 PM
Fri, Feb 27
55 °FPassing clouds.13 mph77%29.80 "HgN/A
11:20 PM55 °FLight rain. Passing clouds.14 mph77%29.80 "HgN/A
10:50 PM55 °FLight rain. Passing clouds.12 mph77%29.80 "HgN/A
10:20 PM55 °FPassing clouds.12 mph72%29.77 "HgN/A
9:50 PM55 °FPassing clouds.12 mph72%29.77 "HgN/A
9:20 PM55 °FPassing clouds.12 mph72%29.77 "HgN/A
8:50 PM55 °FPassing clouds.6 mph72%29.77 "HgN/A
8:20 PM55 °FPassing clouds.10 mph72%29.77 "HgN/A
7:50 PM55 °FPassing clouds.5 mph72%29.77 "HgN/A
7:20 PM59 °FPassing clouds.12 mph59%29.77 "HgN/A
6:50 PM59 °FPassing clouds.8 mph59%29.77 "HgN/A
6:20 PM61 °FPassing clouds.8 mph59%29.74 "HgN/A
Weather by CustomWeather, © 2015

See weather overviewHow to use our weather pages